Tracking 19562 objects as of 23-Mar-2019
HD Live streaming from Space Station
objects crossing your sky now

COSMOS 2428

Track COSMOS 2428 now!
10-day predictions
COSMOS 2428 is classified as:


NORAD ID: 31792
Int'l Code: 2007-029A
Perigee: 851.6 km
Apogee: 864.2 km
Inclination: 71.0 °
Period: 101.9 minutes
Semi major axis: 7228 km
RCS: 6.5075 m2 (large)
Launch date: June 29, 2007
Source: Commonwealth of Independent States (former USSR) (CIS)
Launch site: TYURATAM MISSILE AND SPACE COMPLEX (TTMTR)

Cosmos-2428 is a defense satellite.
aabbcc
Your satellite tracking list
Your tracking list is empty




NASA's NSSDC Master Catalog

Two Line Element Set (TLE):
1 31792U 07029A   19082.58598422 -.00000320  00000-0 -14725-3 0  9992
2 31792  70.9542 141.0970 0008748  14.8314 345.3062 14.12526677605062
Source of the keplerian elements: AFSPC